EW2748 Weather Reports


Display with metric or nautical units.
time (UTC)temp
F
wind
direction
speed
MPH
gust
MPH
rain 1hr
in
rain 24hr
in
rain mn
in
humidity
%
barometer
mb
20260502164016 63 323 3.0 9.0 0.00 0.00 0.00 40 1017.6
20260502163506 62 33 2.0 7.0 0.00 0.00 0.00 39 1017.7
20260502163004 63 27 1.0 7.0 0.00 0.00 0.00 41 1017.9
20260502162505 62 39 2.0 7.0 0.00 0.00 0.00 39 1017.8
20260502161505 61 343 1.0 12.0 0.00 0.00 0.00 39 1017.9
20260502161003 61 32 2.0 10.0 0.00 0.00 0.00 41 1017.9
20260502160509 61 342 3.0 10.0 0.00 0.00 0.00 39 1017.9
20260502152004 59 14 3.0 9.0 0.00 0.00 0.00 46 1017.9
20260502151513 58 253 0.0 8.0 0.00 0.00 0.00 46 1017.7
20260502151003 58 278 1.0 8.0 0.00 0.00 0.00 46 1017.7
20260502130507 53 24 0.0 4.0 0.00 0.00 0.00 62 1017.1
20260502123508 51 276 1.0 5.0 0.00 0.00 0.00 66 1016.9
20260502123015 51 30 0.0 5.0 0.00 0.00 0.00 65 1017.0
20260502122507 51 30 0.0 4.0 0.00 0.00 0.00 66 1016.8
20260502122004 51 283 0.0 4.0 0.00 0.00 0.00 66 1016.8
20260502121517 50 19 0.0 2.0 0.00 0.00 0.00 68 1016.9
20260502121006 50 285 0.0 2.0 0.00 0.00 0.00 68 1016.7
20260502120507 50 266 0.0 1.0 0.00 0.00 0.00 67 1016.6
20260502115008 50 291 0.0 0.0 0.00 0.00 0.00 68 1016.4
20260502114512 50 291 0.0 0.0 0.00 0.00 0.00 67 1016.3
20260502114006 50 291 0.0 1.0 0.00 0.00 0.00 66 1016.4
20260502113024 50 16 0.0 1.0 0.00 0.00 0.00 65 1016.2
20260502112505 50 21 0.0 1.0 0.00 0.00 0.00 66 1016.2
20260502112009 50 297 0.0 1.0 0.00 0.00 0.00 65 1016.2
20260502111520 50 297 0.0 1.0 0.00 0.00 0.00 65 1016.1
20260502111004 50 12 0.0 1.0 0.00 0.00 0.00 65 1016.1
20260502110023 51 311 0.0 0.0 0.00 0.00 0.00 64 1015.9
20260502105512 51 29 0.0 1.0 0.00 0.00 0.00 63 1015.9
20260502105008 51 281 0.0 1.0 0.00 0.00 0.00 63 1015.9
20260502104517 51 306 0.0 1.0 0.00 0.00 0.00 63 1015.8
20260502104008 51 288 0.0 1.0 0.00 0.00 0.00 62 1015.7
20260502103510 51 343 0.0 1.0 0.00 0.00 0.00 62 1015.6
20260502102509 51 347 0.0 1.0 0.00 0.00 0.00 61 1015.6
20260502102011 51 352 0.0 2.0 0.00 0.00 0.00 60 1015.7
20260502101512 52 275 0.0 2.0 0.00 0.00 0.00 60 1015.8
20260502101006 52 280 0.0 3.0 0.00 0.00 0.00 60 1015.6
20260502091519 53 268 0.0 2.0 0.00 0.00 0.00 55 1015.6
20260502091007 53 351 0.0 2.0 0.00 0.00 0.00 54 1015.4
20260502090507 53 290 0.0 3.0 0.00 0.00 0.00 55 1015.4
20260502071515 55 347 1.0 5.0 0.00 0.00 0.00 52 1015.8
20260502071006 55 349 0.0 5.0 0.00 0.00 0.00 51 1015.9
20260502070514 55 290 0.0 5.0 0.00 0.00 0.00 52 1015.9
20260502070032 55 51 1.0 4.0 0.00 0.00 0.00 51 1016.2
20260502065011 55 258 0.0 4.0 0.00 0.00 0.00 52 1016.3
20260502064527 55 347 0.0 4.0 0.00 0.00 0.00 51 1016.1
20260502064003 55 289 0.0 5.0 0.00 0.00 0.00 51 1016.3
20260502063026 55 259 0.0 5.0 0.00 0.00 0.00 51 1016.2
20260502062511 56 269 1.0 5.0 0.00 0.00 0.00 50 1016.1
20260502062013 56 4 1.0 5.0 0.00 0.00 0.00 49 1016.2
20260502061010 56 311 1.0 7.0 0.00 0.00 0.00 49 1016.6
20260502060021 56 344 1.0 7.0 0.00 0.00 0.00 50 1016.3
20260502055510 56 283 0.0 5.0 0.00 0.00 0.00 50 1016.2
20260502055011 56 25 1.0 5.0 0.00 0.00 0.00 48 1016.1
20260502054518 56 43 1.0 5.0 0.00 0.00 0.00 48 1016.0
20260502054009 56 279 1.0 5.0 0.00 0.00 0.00 49 1015.9
20260502053508 56 354 0.0 6.0 0.00 0.00 0.00 48 1015.9
20260502053029 56 311 2.0 6.0 0.00 0.00 0.00 47 1016.1
20260502052513 56 286 0.0 6.0 0.00 0.00 0.00 48 1016.0
20260502052010 56 70 1.0 5.0 0.00 0.00 0.00 47 1015.9
20260502051529 56 47 0.0 6.0 0.00 0.00 0.00 48 1015.9
20260502051005 56 296 2.0 6.0 0.00 0.00 0.00 46 1016.0
20260502045504 57 336 0.0 4.0 0.00 0.00 0.00 47 1015.8
20260502045005 57 313 1.0 4.0 0.00 0.00 0.00 47 1015.7
20260502044506 57 297 0.0 4.0 0.00 0.00 0.00 47 1015.7
20260502044004 57 338 0.0 4.0 0.00 0.00 0.00 48 1015.6
20260502043010 57 261 0.0 4.0 0.00 0.00 0.00 48 1015.7
20260502042504 57 293 0.0 2.0 0.00 0.00 0.00 48 1015.7
20260502042005 57 69 0.0 2.0 0.00 0.00 0.00 48 1015.7
20260502041511 57 264 0.0 2.0 0.00 0.00 0.00 49 1015.7
20260502040504 58 307 1.0 5.0 0.00 0.00 0.00 47 1015.8
20260502035006 58 310 0.0 6.0 0.00 0.00 0.00 47 1015.8
20260502034003 58 281 0.0 6.0 0.00 0.00 0.00 48 1015.8
20260502033502 59 281 0.0 6.0 0.00 0.00 0.00 48 1015.6
20260502032505 59 22 2.0 8.0 0.00 0.00 0.00 48 1015.9
20260502032006 59 322 0.0 5.0 0.00 0.00 0.00 46 1016.0
20260502031508 59 25 1.0 7.0 0.00 0.00 0.00 47 1016.0
20260502031005 59 274 1.0 7.0 0.00 0.00 0.00 47 1016.2
20260502030505 59 59 0.0 4.0 0.00 0.00 0.00 48 1016.2
20260502025504 60 302 2.0 8.0 0.00 0.00 0.00 50 1016.1
20260502024531 60 34 1.0 8.0 0.00 0.00 0.00 50 1016.2
20260502024003 60 80 1.0 8.0 0.00 0.00 0.00 52 1016.0
20260502023012 60 321 2.0 6.0 0.00 0.00 0.00 58 1015.9
20260502022504 61 297 1.0 5.0 0.00 0.00 0.00 58 1015.8
20260502022004 61 285 1.0 5.0 0.00 0.00 0.00 60 1015.8
20260502021514 61 300 1.0 9.0 0.00 0.00 0.00 61 1015.7
20260502021005 61 307 0.0 9.0 0.00 0.00 0.00 61 1015.6
20260502020503 61 340 0.0 3.0 0.00 0.00 0.00 62 1015.5
20260502020016 61 1 0.0 4.0 0.00 0.00 0.00 62 1015.4
20260502015003 61 335 0.0 6.0 0.00 0.00 0.00 63 1015.4
20260502014522 61 352 1.0 3.0 0.00 0.00 0.00 63 1015.4
20260502013503 61 290 0.0 5.0 0.00 0.00 0.00 67 1015.4
20260502013008 61 32 1.0 5.0 0.00 0.00 0.00 67 1015.3
20260502012003 61 298 0.0 1.0 0.00 0.00 0.00 67 1015.4
20260502010502 61 283 0.0 1.0 0.00 0.00 0.00 67 1015.3
20260502010016 61 283 0.0 0.0 0.00 0.00 0.00 67 1015.3
20260502005503 61 283 0.0 0.0 0.00 0.00 0.00 70 1015.1
20260502005007 61 283 0.0 0.0 0.00 0.00 0.00 68 1015.0
20260502004514 61 283 0.0 0.0 0.00 0.00 0.00 66 1014.9
20260502004005 62 283 0.0 0.0 0.00 0.00 0.00 65 1015.0
20260502003503 62 283 0.0 0.0 0.00 0.00 0.00 62 1014.9
20260502003012 62 283 0.0 0.0 0.00 0.00 0.00 60 1014.7
20260502001004 63 283 0.0 0.0 0.00 0.00 0.00 61 1014.3
20260502000503 63 283 0.0 1.0 0.00 0.00 0.00 57 1014.3
20260502000010 63 283 0.0 1.0 0.00 0.00 0.00 57 1014.2
20260501235504 64 283 0.0 1.0 0.00 0.00 0.00 57 1014.3
20260501235007 64 289 0.0 0.0 0.00 0.00 0.00 56 1014.1
20260501234516 64 289 0.0 2.0 0.00 0.00 0.00 55 1014.2
20260501234004 64 290 0.0 2.0 0.00 0.00 0.00 55 1014.2
20260501233504 64 271 0.0 1.0 0.00 0.00 0.00 55 1014.1
20260501233017 64 275 0.0 0.0 0.00 0.00 0.00 55 1014.0
20260501232504 64 275 0.0 0.0 0.00 0.00 0.00 55 1013.9
20260501232006 65 275 0.0 0.0 0.00 0.00 0.00 55 1013.9
20260501231519 65 275 0.0 0.0 0.00 0.00 0.00 55 1014.1
20260501230504 65 275 0.0 1.0 0.00 0.00 0.00 52 1013.9
20260501230015 65 274 0.0 1.0 0.00 0.00 0.00 52 1014.0
20260501225513 65 328 0.0 1.0 0.00 0.00 0.00 51 1014.0
20260501225007 65 26 0.0 3.0 0.00 0.00 0.00 51 1014.0
20260501224514 65 288 0.0 3.0 0.00 0.00 0.00 50 1014.0
20260501224012 65 285 1.0 3.0 0.00 0.00 0.00 51 1014.1
20260501223505 66 289 0.0 2.0 0.00 0.00 0.00 50 1013.9
20260501222507 66 267 0.0 3.0 0.00 0.00 0.00 51 1013.8
20260501222008 66 32 0.0 3.0 0.00 0.00 0.00 53 1013.6
20260501221523 66 32 1.0 3.0 0.00 0.00 0.00 49 1013.3
20260501221007 66 269 0.0 1.0 0.00 0.00 0.00 48 1013.2
20260501220510 66 284 0.0 1.0 0.00 0.00 0.00 51 1013.2
20260501220021 66 342 0.0 6.0 0.00 0.00 0.00 49 1013.4
20260501215505 67 345 0.0 6.0 0.00 0.00 0.00 46 1013.5
20260501215008 67 23 0.0 2.0 0.00 0.00 0.00 48 1013.5
20260501214004 67 245 0.0 3.0 0.00 0.00 0.00 48 1013.5
20260501213504 67 329 1.0 3.0 0.00 0.00 0.00 46 1013.4
20260501213017 67 6 0.0 3.0 0.00 0.00 0.00 50 1013.5
20260501212505 67 283 0.0 3.0 0.00 0.00 0.00 48 1013.5
20260501212004 67 307 1.0 3.0 0.00 0.00 0.00 47 1013.7
20260501211516 67 297 1.0 3.0 0.00 0.00 0.00 47 1013.9
20260501211009 67 298 0.0 2.0 0.00 0.00 0.00 49 1014.0
20260501210505 66 269 0.0 4.0 0.00 0.00 0.00 49 1014.1
20260501205510 67 278 0.0 6.0 0.00 0.00 0.00 46 1014.2
20260501204524 66 278 1.0 6.0 0.00 0.00 0.00 47 1014.4
20260501204005 66 270 1.0 4.0 0.00 0.00 0.00 47 1014.5
20260501203504 66 281 2.0 4.0 0.00 0.00 0.00 46 1014.6
20260501203036 66 274 0.0 3.0 0.00 0.00 0.00 50 1014.9
20260501202502 66 52 0.0 3.0 0.00 0.00 0.00 51 1014.9
20260501202006 65 285 1.0 3.0 0.00 0.00 0.00 49 1015.1
20260501201519 65 288 0.0 5.0 0.00 0.00 0.00 53 1015.0
20260501201007 65 299 1.0 5.0 0.00 0.00 0.00 48 1015.2
20260501200506 65 288 0.0 5.0 0.00 0.00 0.00 50 1015.2
20260501200021 65 337 1.0 5.0 0.00 0.00 0.00 50 1015.4
20260501195507 65 274 1.0 4.0 0.00 0.00 0.00 49 1015.4
20260501195003 65 288 0.0 3.0 0.00 0.00 0.00 48 1015.5
20260501194520 66 275 0.0 4.0 0.00 0.00 0.00 49 1015.6
20260501193508 66 306 0.0 5.0 0.00 0.00 0.00 48 1015.8
20260501193015 66 345 2.0 4.0 0.00 0.00 0.00 47 1015.8
20260501192512 66 259 0.0 2.0 0.00 0.00 0.00 47 1015.8
20260501192008 66 347 0.0 3.0 0.00 0.00 0.00 48 1015.8
20260501191520 66 264 0.0 4.0 0.00 0.00 0.00 47 1015.8
20260501191006 65 288 1.0 5.0 0.00 0.00 0.00 47 1015.9
20260501190510 65 32 0.0 6.0 0.00 0.00 0.00 45 1016.0
20260501190020 65 79 0.0 6.0 0.00 0.00 0.00 46 1015.9
20260501185007 65 264 0.0 3.0 0.00 0.00 0.00 48 1015.9
20260501184007 65 3 1.0 5.0 0.00 0.00 0.00 49 1015.9
20260501182508 64 11 0.0 4.0 0.00 0.00 0.00 50 1015.8
20260501182007 64 2 1.0 5.0 0.00 0.00 0.00 49 1015.8
20260501181523 64 307 0.0 5.0 0.00 0.00 0.00 50 1015.8
20260501181008 64 295 1.0 4.0 0.00 0.00 0.00 51 1015.7
20260501180504 64 105 0.0 2.0 0.00 0.00 0.00 52 1015.7
20260501180022 64 282 0.0 3.0 0.00 0.00 0.00 51 1015.7
20260501175507 64 360 1.0 6.0 0.00 0.00 0.00 51 1015.7
20260501175004 64 280 3.0 6.0 0.00 0.00 0.00 50 1015.7
20260501174518 64 291 0.0 7.0 0.00 0.00 0.00 52 1015.9
20260501174006 63 280 2.0 7.0 0.00 0.00 0.00 49 1016.0
20260501173507 64 38 1.0 7.0 0.00 0.00 0.00 50 1016.0
20260501173010 64 297 0.0 5.0 0.00 0.00 0.00 47 1016.1
20260501172507 64 297 1.0 5.0 0.00 0.00 0.00 48 1016.3
20260501171509 64 270 0.0 8.0 0.00 0.00 0.00 48 1016.3
20260501170506 64 352 0.0 8.0 0.00 0.00 0.00 46 1016.6
20260501170020 63 285 1.0 8.0 0.00 0.00 0.00 48 1016.6
20260501165508 63 32 2.0 6.0 0.00 0.00 0.00 47 1016.5
20260501165006 63 276 0.0 3.0 0.00 0.00 0.00 51 1016.5
20260501164531 63 293 1.0 3.0 0.00 0.00 0.00 51 1016.5